owner,sensor,date,latitude,longitude,vertical_datum,wind_speed,wind_to_direction,wind_speed_of_gust,qcFlag 
TCOON,ioos:station:TCOON:524:1,2008-09-11T14:00:00Z,29.8672,-93.9310,0.0,1.3,47.0,4.8,'11111222,11111222,11111222' 
TCOON,ioos:station:TCOON:524:1,2008-09-11T15:00:00Z,29.8672,-93.9310,0.0,2.1,51.0,4.5,'11111222,11111222,11111222' 
TCOON,ioos:station:TCOON:524:1,2008-09-11T16:00:00Z,29.8672,-93.9310,0.0,5.2,69.0,7.0,'11111222,11111222,11111222' 
TCOON,ioos:station:TCOON:524:1,2008-09-11T17:00:00Z,29.8672,-93.9310,0.0,4.3,67.0,5.9,'11111222,11111222,11111222' 
TCOON,ioos:station:TCOON:524:1,2008-09-11T18:00:00Z,29.8672,-93.9310,0.0,6.1,65.0,9.1,'11111222,11111222,11111222' 
TCOON,ioos:station:TCOON:524:1,2008-09-11T19:00:00Z,29.8672,-93.9310,0.0,7.4,57.0,11.0,'11111222,11111222,11111222' 
TCOON,ioos:station:TCOON:524:1,2008-09-11T20:00:00Z,29.8672,-93.9310,0.0,5.0,60.0,7.7,'11111222,11111222,11111222' 
TCOON,ioos:station:TCOON:524:1,2008-09-11T21:00:00Z,29.8672,-93.9310,0.0,5.2,52.0,7.7,'11111222,11111222,11111222' 
TCOON,ioos:station:TCOON:524:1,2008-09-11T22:00:00Z,29.8672,-93.9310,0.0,4.6,64.0,6.6,'11111222,11111222,11111222' 
TCOON,ioos:station:TCOON:524:1,2008-09-11T23:00:00Z,29.8672,-93.9310,0.0,4.0,69.0,5.7,'11111222,11111222,11111222' 
TCOON,ioos:station:TCOON:524:1,2008-09-12T00:00:00Z,29.8672,-93.9310,0.0,4.7,55.0,7.1,'11111222,11111222,11111222' 
TCOON,ioos:station:TCOON:524:1,2008-09-12T01:00:00Z,29.8672,-93.9310,0.0,1.7,49.0,4.5,'11111222,11111222,11111222' 
TCOON,ioos:station:TCOON:524:1,2008-09-12T02:00:00Z,29.8672,-93.9310,0.0,0.7,49.0,1.9,'11111222,11111222,11111222' 
TCOON,ioos:station:TCOON:524:1,2008-09-12T03:00:00Z,29.8672,-93.9310,0.0,3.4,46.0,6.4,'11111222,11111222,11111222' 
TCOON,ioos:station:TCOON:524:1,2008-09-12T04:00:00Z,29.8672,-93.9310,0.0,1.8,36.0,4.1,'11111222,11111222,11111222' 
TCOON,ioos:station:TCOON:524:1,2008-09-12T05:00:00Z,29.8672,-93.9310,0.0,1.1,16.0,3.5,'11111222,11111222,11111222' 
TCOON,ioos:station:TCOON:524:1,2008-09-12T06:00:00Z,29.8672,-93.9310,0.0,1.9,42.0,6.2,'11111222,11111222,11111222' 
TCOON,ioos:station:TCOON:524:1,2008-09-12T07:00:00Z,29.8672,-93.9310,0.0,1.7,14.0,4.2,'11111222,11111222,11111222' 
TCOON,ioos:station:TCOON:524:1,2008-09-12T08:00:00Z,29.8672,-93.9310,0.0,1.4,3.0,4.5,'11111222,11111222,11111222' 
TCOON,ioos:station:TCOON:524:1,2008-09-12T09:00:00Z,29.8672,-93.9310,0.0,1.7,37.0,5.6,'11111222,11111222,11111222' 
TCOON,ioos:station:TCOON:524:1,2008-09-12T10:00:00Z,29.8672,-93.9310,0.0,1.8,44.0,6.5,'11111222,11111222,11111222' 
TCOON,ioos:station:TCOON:524:1,2008-09-12T11:00:00Z,29.8672,-93.9310,0.0,4.6,47.0,9.0,'11111222,11111222,11111222' 
TCOON,ioos:station:TCOON:524:1,2008-09-12T12:00:00Z,29.8672,-93.9310,0.0,4.0,49.0,7.7,'11111222,11111222,11111222' 
TCOON,ioos:station:TCOON:524:1,2008-09-12T13:00:00Z,29.8672,-93.9310,0.0,3.0,48.0,6.2,'11111222,11111222,11111222' 
TCOON,ioos:station:TCOON:524:1,2008-09-12T14:00:00Z,29.8672,-93.9310,0.0,2.5,41.0,6.7,'11111222,11111222,11111222' 
TCOON,ioos:station:TCOON:524:1,2008-09-12T15:00:00Z,29.8672,-93.9310,0.0,7.1,51.0,12.7,'11111222,11111222,11111222' 
TCOON,ioos:station:TCOON:524:1,2008-09-12T16:00:00Z,29.8672,-93.9310,0.0,6.5,48.0,13.7,'11111222,11111222,11111222' 
TCOON,ioos:station:TCOON:524:1,2008-09-12T17:00:00Z,29.8672,-93.9310,0.0,10.0,61.0,14.5,'11111222,11111222,11111222' 
TCOON,ioos:station:TCOON:524:1,2008-09-12T18:00:00Z,29.8672,-93.9310,0.0,11.9,65.0,18.6,'11111222,11111222,11111222' 
TCOON,ioos:station:TCOON:524:1,2008-09-12T19:00:00Z,29.8672,-93.9310,0.0,11.1,59.0,15.8,'11111222,11111222,11111222' 
TCOON,ioos:station:TCOON:524:1,2008-09-12T20:00:00Z,29.8672,-93.9310,0.0,11.2,61.0,18.1,'11111222,11111222,11111222' 
TCOON,ioos:station:TCOON:524:1,2008-09-12T21:00:00Z,29.8672,-93.9310,0.0,5.2,38.0,14.5,'11111222,11111222,11111222' 
TCOON,ioos:station:TCOON:524:1,2008-09-12T22:00:00Z,29.8672,-93.9310,0.0,5.7,43.0,11.9,'11111222,11111222,11111222' 
TCOON,ioos:station:TCOON:524:1,2008-09-12T23:00:00Z,29.8672,-93.9310,0.0,5.6,44.0,16.5,'11111222,11111222,11111222' 
TCOON,ioos:station:TCOON:524:1,2008-09-13T00:00:00Z,29.8672,-93.9310,0.0,9.3,48.0,17.7,'11111222,11111222,11111222' 
TCOON,ioos:station:TCOON:524:1,2008-09-13T01:00:00Z,29.8672,-93.9310,0.0,12.1,54.0,19.0,'11111222,11111222,11111222' 
TCOON,ioos:station:TCOON:524:1,2008-09-13T02:00:00Z,29.8672,-93.9310,0.0,15.3,60.0,26.4,'11111222,11111222,11111222' 
TCOON,ioos:station:TCOON:524:1,2008-09-13T03:00:00Z,29.8672,-93.9310,0.0,14.7,70.0,20.6,'11111222,11111222,11111222' 
TCOON,ioos:station:TCOON:524:1,2008-09-13T04:00:00Z,29.8672,-93.9310,0.0,17.3,88.0,27.5,'11111222,11111222,11111222' 
TCOON,ioos:station:TCOON:524:1,2008-09-13T05:00:00Z,29.8672,-93.9310,0.0,18.8,97.0,29.8,'11111222,11111222,11111222' 
TCOON,ioos:station:TCOON:524:1,2008-09-13T06:00:00Z,29.8672,-93.9310,0.0,21.4,109.0,34.0,'11111222,11111222,11111222' 
TCOON,ioos:station:TCOON:524:1,2008-09-13T07:00:00Z,29.8672,-93.9310,0.0,21.1,115.0,34.9,'11111222,11111222,11111222' 
TCOON,ioos:station:TCOON:524:1,2008-09-13T08:00:00Z,29.8672,-93.9310,0.0,20.3,121.0,28.6,'11111222,11111222,11111222' 
TCOON,ioos:station:TCOON:524:1,2008-09-13T09:00:00Z,29.8672,-93.9310,0.0,20.9,128.0,34.0,'11111222,11111222,11111222' 
TCOON,ioos:station:TCOON:524:1,2008-09-13T10:00:00Z,29.8672,-93.9310,0.0,18.8,148.0,29.6,'11111222,11111222,11111222' 
TCOON,ioos:station:TCOON:524:1,2008-09-13T11:00:00Z,29.8672,-93.9310,0.0,19.6,158.0,30.4,'11111222,11111222,11111222' 
TCOON,ioos:station:TCOON:524:1,2008-09-13T12:00:00Z,29.8672,-93.9310,0.0,17.6,157.0,29.2,'11111222,11111222,11111222' 
TCOON,ioos:station:TCOON:524:1,2008-09-13T13:00:00Z,29.8672,-93.9310,0.0,15.9,160.0,22.8,'11111222,11111222,11111222' 
TCOON,ioos:station:TCOON:524:1,2008-09-13T14:00:00Z,29.8672,-93.9310,0.0,14.7,160.0,21.5,'11111222,11111222,11111222' 
TCOON,ioos:station:TCOON:524:1,2008-09-13T15:00:00Z,29.8672,-93.9310,0.0,13.7,164.0,18.8,'11111222,11111222,11111222' 
TCOON,ioos:station:TCOON:524:1,2008-09-13T16:00:00Z,29.8672,-93.9310,0.0,12.7,173.0,20.4,'11111222,11111222,11111222' 
TCOON,ioos:station:TCOON:524:1,2008-09-13T17:00:00Z,29.8672,-93.9310,0.0,11.0,180.0,16.1,'11111222,11111222,11111222' 
TCOON,ioos:station:TCOON:524:1,2008-09-13T18:00:00Z,29.8672,-93.9310,0.0,10.0,173.0,13.8,'11111222,11111222,11111222' 
TCOON,ioos:station:TCOON:524:1,2008-09-13T19:00:00Z,29.8672,-93.9310,0.0,11.9,181.0,16.1,'11111222,11111222,11111222' 
TCOON,ioos:station:TCOON:524:1,2008-09-13T20:00:00Z,29.8672,-93.9310,0.0,11.4,183.0,16.1,'11111222,11111222,11111222' 
TCOON,ioos:station:TCOON:524:1,2008-09-13T21:00:00Z,29.8672,-93.9310,0.0,10.3,186.0,14.1,'11111222,11111222,11111222' 
TCOON,ioos:station:TCOON:524:1,2008-09-13T22:00:00Z,29.8672,-93.9310,0.0,8.9,176.0,13.0,'11111222,11111222,11111222' 
TCOON,ioos:station:TCOON:524:1,2008-09-13T23:00:00Z,29.8672,-93.9310,0.0,7.6,176.0,11.2,'11111222,11111222,11111222' 
TCOON,ioos:station:TCOON:524:1,2008-09-14T00:00:00Z,29.8672,-93.9310,0.0,6.9,180.0,10.2,'11111222,11111222,11111222' 
TCOON,ioos:station:TCOON:524:1,2008-09-14T01:00:00Z,29.8672,-93.9310,0.0,6.6,176.0,10.7,'11111222,11111222,11111222' 
TCOON,ioos:station:TCOON:524:1,2008-09-14T02:00:00Z,29.8672,-93.9310,0.0,6.1,179.0,9.6,'11111222,11111222,11111222' 
TCOON,ioos:station:TCOON:524:1,2008-09-14T03:00:00Z,29.8672,-93.9310,0.0,6.3,173.0,9.7,'11111222,11111222,11111222' 
TCOON,ioos:station:TCOON:524:1,2008-09-14T04:00:00Z,29.8672,-93.9310,0.0,5.6,180.0,18.2,'11111222,11111222,11111222' 
TCOON,ioos:station:TCOON:524:1,2008-09-14T05:00:00Z,29.8672,-93.9310,0.0,5.1,182.0,7.8,'11111222,11111222,11111222' 
TCOON,ioos:station:TCOON:524:1,2008-09-14T06:00:00Z,29.8672,-93.9310,0.0,5.2,182.0,6.7,'11111222,11111222,11111222' 
TCOON,ioos:station:TCOON:524:1,2008-09-14T07:00:00Z,29.8672,-93.9310,0.0,5.0,177.0,7.9,'11111222,11111222,11111222' 
TCOON,ioos:station:TCOON:524:1,2008-09-14T08:00:00Z,29.8672,-93.9310,0.0,5.3,181.0,6.9,'11111222,11111222,11111222' 
TCOON,ioos:station:TCOON:524:1,2008-09-14T09:00:00Z,29.8672,-93.9310,0.0,6.4,181.0,9.6,'11111222,11111222,11111222' 
TCOON,ioos:station:TCOON:524:1,2008-09-14T10:00:00Z,29.8672,-93.9310,0.0,5.1,182.0,6.6,'11111222,11111222,11111222' 
TCOON,ioos:station:TCOON:524:1,2008-09-14T11:00:00Z,29.8672,-93.9310,0.0,4.6,182.0,6.6,'11111222,11111222,11111222' 
TCOON,ioos:station:TCOON:524:1,2008-09-14T12:00:00Z,29.8672,-93.9310,0.0,3.9,191.0,6.7,'11111222,11111222,11111222' 
TCOON,ioos:station:TCOON:524:1,2008-09-14T13:00:00Z,29.8672,-93.9310,0.0,5.9,318.0,8.1,'11111222,11111222,11111222' 
TCOON,ioos:station:TCOON:524:1,2008-09-14T14:00:00Z,29.8672,-93.9310,0.0,1.9,280.0,2.8,'11111222,11111222,11111222' 
TCOON,ioos:station:TCOON:524:1,2008-09-14T15:00:00Z,29.8672,-93.9310,0.0,3.1,240.0,4.1,'11111222,11111222,11111222' 
TCOON,ioos:station:TCOON:524:1,2008-09-14T16:00:00Z,29.8672,-93.9310,0.0,3.5,269.0,4.5,'11111222,11111222,11111222' 
TCOON,ioos:station:TCOON:524:1,2008-09-14T17:00:00Z,29.8672,-93.9310,0.0,3.2,340.0,4.9,'11111222,11111222,11111222' 
TCOON,ioos:station:TCOON:524:1,2008-09-14T18:00:00Z,29.8672,-93.9310,0.0,2.1,61.0,2.9,'11111222,11111222,11111222' 
TCOON,ioos:station:TCOON:524:1,2008-09-14T19:00:00Z,29.8672,-93.9310,0.0,1.8,164.0,2.7,'11111222,11111222,11111222' 
TCOON,ioos:station:TCOON:524:1,2008-09-14T20:00:00Z,29.8672,-93.9310,0.0,1.8,151.0,2.2,'11111222,11111222,11111222' 
TCOON,ioos:station:TCOON:524:1,2008-09-14T21:00:00Z,29.8672,-93.9310,0.0,3.0,253.0,3.8,'11111222,11111222,11111222' 
TCOON,ioos:station:TCOON:524:1,2008-09-14T22:00:00Z,29.8672,-93.9310,0.0,2.2,337.0,3.1,'11111222,11111222,11111222' 
TCOON,ioos:station:TCOON:524:1,2008-09-14T23:00:00Z,29.8672,-93.9310,0.0,1.7,334.0,2.5,'11111222,11111222,11111222' 
TCOON,ioos:station:TCOON:524:1,2008-09-15T00:00:00Z,29.8672,-93.9310,0.0,2.9,3.0,3.8,'11111222,11111222,11111222' 
TCOON,ioos:station:TCOON:524:1,2008-09-15T01:00:00Z,29.8672,-93.9310,0.0,6.5,348.0,8.8,'11111222,11111222,11111222' 
TCOON,ioos:station:TCOON:524:1,2008-09-15T02:00:00Z,29.8672,-93.9310,0.0,5.8,353.0,7.5,'11111222,11111222,11111222' 
TCOON,ioos:station:TCOON:524:1,2008-09-15T03:00:00Z,29.8672,-93.9310,0.0,4.2,2.0,6.0,'11111222,11111222,11111222' 
TCOON,ioos:station:TCOON:524:1,2008-09-15T04:00:00Z,29.8672,-93.9310,0.0,3.7,4.0,5.8,'11111222,11111222,11111222' 
TCOON,ioos:station:TCOON:524:1,2008-09-15T05:00:00Z,29.8672,-93.9310,0.0,1.9,21.0,4.6,'11111222,11111222,11111222' 
TCOON,ioos:station:TCOON:524:1,2008-09-15T06:00:00Z,29.8672,-93.9310,0.0,4.1,360.0,4.7,'11111222,11144222,11111222' 
TCOON,ioos:station:TCOON:524:1,2008-09-15T07:00:00Z,29.8672,-93.9310,0.0,2.6,358.0,3.2,'11111222,11111222,11111222' 
TCOON,ioos:station:TCOON:524:1,2008-09-15T08:00:00Z,29.8672,-93.9310,0.0,2.9,342.0,4.0,'11111222,11111222,11111222' 
TCOON,ioos:station:TCOON:524:1,2008-09-15T09:00:00Z,29.8672,-93.9310,0.0,3.2,359.0,4.1,'11111222,11111222,11111222' 
TCOON,ioos:station:TCOON:524:1,2008-09-15T10:00:00Z,29.8672,-93.9310,0.0,5.2,359.0,6.7,'11111222,11111222,11111222' 
TCOON,ioos:station:TCOON:524:1,2008-09-15T11:00:00Z,29.8672,-93.9310,0.0,5.9,1.0,8.7,'11111222,11111222,11111222' 
TCOON,ioos:station:TCOON:524:1,2008-09-15T12:00:00Z,29.8672,-93.9310,0.0,5.5,4.0,7.2,'11111222,11111222,11111222' 
TCOON,ioos:station:TCOON:524:1,2008-09-15T13:00:00Z,29.8672,-93.9310,0.0,5.2,4.0,6.8,'11111222,11111222,11111222' 
TCOON,ioos:station:TCOON:524:1,2008-09-15T14:00:00Z,29.8672,-93.9310,0.0,5.6,2.0,7.6,'11111222,11111222,11111222' 
TCOON,ioos:station:TCOON:524:1,2008-09-15T15:00:00Z,29.8672,-93.9310,0.0,4.3,7.0,8.1,'11111222,11111222,11111222' 
TCOON,ioos:station:TCOON:524:1,2008-09-15T16:00:00Z,29.8672,-93.9310,0.0,2.6,12.0,4.6,'11111222,11111222,11111222' 
TCOON,ioos:station:TCOON:524:1,2008-09-15T17:00:00Z,29.8672,-93.9310,0.0,1.3,18.0,3.4,'11111222,11111222,11111222' 
TCOON,ioos:station:TCOON:524:1,2008-09-15T18:00:00Z,29.8672,-93.9310,0.0,2.2,40.0,5.7,'11111222,11111222,11111222' 
TCOON,ioos:station:TCOON:524:1,2008-09-15T19:00:00Z,29.8672,-93.9310,0.0,2.3,9.0,4.2,'11111222,11111222,11111222' 
TCOON,ioos:station:TCOON:524:1,2008-09-15T20:00:00Z,29.8672,-93.9310,0.0,4.7,344.0,6.4,'11111222,11111222,11111222' 
TCOON,ioos:station:TCOON:524:1,2008-09-15T21:00:00Z,29.8672,-93.9310,0.0,7.6,345.0,9.1,'11111222,11111222,11111222' 
TCOON,ioos:station:TCOON:524:1,2008-09-15T22:00:00Z,29.8672,-93.9310,0.0,7.0,347.0,10.1,'11111222,11111222,11111222' 
TCOON,ioos:station:TCOON:524:1,2008-09-15T23:00:00Z,29.8672,-93.9310,0.0,5.2,355.0,6.4,'11111222,11111222,11111222' 
TCOON,ioos:station:TCOON:524:1,2008-09-16T00:00:00Z,29.8672,-93.9310,0.0,6.1,356.0,9.2,'11111222,11111222,11111222' 
TCOON,ioos:station:TCOON:524:1,2008-09-16T01:00:00Z,29.8672,-93.9310,0.0,3.7,7.0,6.6,'11111222,11111222,11111222' 
TCOON,ioos:station:TCOON:524:1,2008-09-16T02:00:00Z,29.8672,-93.9310,0.0,3.5,8.0,5.8,'11111222,11111222,11111222' 
TCOON,ioos:station:TCOON:524:1,2008-09-16T03:00:00Z,29.8672,-93.9310,0.0,5.0,1.0,6.6,'11111222,11111222,11111222' 
TCOON,ioos:station:TCOON:524:1,2008-09-16T04:00:00Z,29.8672,-93.9310,0.0,4.2,7.0,7.4,'11111222,11111222,11111222' 
TCOON,ioos:station:TCOON:524:1,2008-09-16T05:00:00Z,29.8672,-93.9310,0.0,3.8,6.0,6.8,'11111222,11111222,11111222' 
TCOON,ioos:station:TCOON:524:1,2008-09-16T06:00:00Z,29.8672,-93.9310,0.0,4.0,7.0,6.0,'11111222,11111222,11111222' 
TCOON,ioos:station:TCOON:524:1,2008-09-16T07:00:00Z,29.8672,-93.9310,0.0,2.7,7.0,4.9,'11111222,11111222,11111222' 
TCOON,ioos:station:TCOON:524:1,2008-09-16T08:00:00Z,29.8672,-93.9310,0.0,2.0,18.0,3.6,'11111222,11111222,11111222' 
TCOON,ioos:station:TCOON:524:1,2008-09-16T09:00:00Z,29.8672,-93.9310,0.0,3.7,5.0,5.3,'11111222,11111222,11111222' 
TCOON,ioos:station:TCOON:524:1,2008-09-16T10:00:00Z,29.8672,-93.9310,0.0,3.9,7.0,6.3,'11111222,11111222,11111222' 
TCOON,ioos:station:TCOON:524:1,2008-09-16T11:00:00Z,29.8672,-93.9310,0.0,3.3,10.0,5.0,'11111222,11111222,11111222' 
TCOON,ioos:station:TCOON:524:1,2008-09-16T12:00:00Z,29.8672,-93.9310,0.0,3.8,4.0,5.5,'11111222,11111222,11111222' 
TCOON,ioos:station:TCOON:524:1,2008-09-16T13:00:00Z,29.8672,-93.9310,0.0,3.9,6.0,6.3,'11111222,11111222,11111222' 
TCOON,ioos:station:TCOON:524:1,2008-09-16T14:00:00Z,29.8672,-93.9310,0.0,3.4,13.0,6.9,'11111222,11111222,11111222' 
TCOON,ioos:station:TCOON:524:1,2008-09-16T15:00:00Z,29.8672,-93.9310,0.0,1.9,20.0,3.9,'11111222,11111222,11111222' 
TCOON,ioos:station:TCOON:524:1,2008-09-16T16:00:00Z,29.8672,-93.9310,0.0,3.3,14.0,6.8,'11111222,11111222,11111222' 
TCOON,ioos:station:TCOON:524:1,2008-09-16T17:00:00Z,29.8672,-93.9310,0.0,1.3,20.0,3.3,'11111222,11111222,11111222' 
TCOON,ioos:station:TCOON:524:1,2008-09-16T18:00:00Z,29.8672,-93.9310,0.0,6.5,358.0,8.3,'11111222,11111222,11111222' 
TCOON,ioos:station:TCOON:524:1,2008-09-16T19:00:00Z,29.8672,-93.9310,0.0,3.4,10.0,6.8,'11111222,11111222,11111222' 
TCOON,ioos:station:TCOON:524:1,2008-09-16T20:00:00Z,29.8672,-93.9310,0.0,1.0,358.0,3.2,'11111222,11111222,11111222' 
TCOON,ioos:station:TCOON:524:1,2008-09-16T21:00:00Z,29.8672,-93.9310,0.0,3.1,2.0,5.3,'11111222,11111222,11111222' 
TCOON,ioos:station:TCOON:524:1,2008-09-16T22:00:00Z,29.8672,-93.9310,0.0,1.3,19.0,2.8,'11111222,11111222,11111222' 
TCOON,ioos:station:TCOON:524:1,2008-09-16T23:00:00Z,29.8672,-93.9310,0.0,5.6,360.0,6.7,'11111222,11144222,11111222' 
TCOON,ioos:station:TCOON:524:1,2008-09-17T00:00:00Z,29.8672,-93.9310,0.0,2.0,16.0,4.8,'11111222,11111222,11111222' 
TCOON,ioos:station:TCOON:524:1,2008-09-17T01:00:00Z,29.8672,-93.9310,0.0,2.3,356.0,2.8,'11111222,11111222,11111222' 
TCOON,ioos:station:TCOON:524:1,2008-09-17T02:00:00Z,29.8672,-93.9310,0.0,2.6,1.0,3.1,'11111222,11111222,11111222' 
TCOON,ioos:station:TCOON:524:1,2008-09-17T03:00:00Z,29.8672,-93.9310,0.0,2.3,3.0,3.0,'11111222,11111222,11111222' 
TCOON,ioos:station:TCOON:524:1,2008-09-17T04:00:00Z,29.8672,-93.9310,0.0,2.5,359.0,3.1,'11111222,11111222,11111222' 
TCOON,ioos:station:TCOON:524:1,2008-09-17T05:00:00Z,29.8672,-93.9310,0.0,2.4,6.0,3.8,'11111222,11111222,11111222' 
TCOON,ioos:station:TCOON:524:1,2008-09-17T06:00:00Z,29.8672,-93.9310,0.0,1.0,8.0,3.1,'11111222,11111222,11111222' 
TCOON,ioos:station:TCOON:524:1,2008-09-17T07:00:00Z,29.8672,-93.9310,0.0,2.4,5.0,3.4,'11111222,11111222,11111222' 
TCOON,ioos:station:TCOON:524:1,2008-09-17T08:00:00Z,29.8672,-93.9310,0.0,3.4,3.0,5.1,'11111222,11111222,11111222' 
TCOON,ioos:station:TCOON:524:1,2008-09-17T09:00:00Z,29.8672,-93.9310,0.0,1.8,14.0,3.4,'11111222,11111222,11111222' 
TCOON,ioos:station:TCOON:524:1,2008-09-17T10:00:00Z,29.8672,-93.9310,0.0,3.6,10.0,5.2,'11111222,11111222,11111222' 
TCOON,ioos:station:TCOON:524:1,2008-09-17T11:00:00Z,29.8672,-93.9310,0.0,1.4,19.0,3.5,'11111222,11111222,11111222' 
TCOON,ioos:station:TCOON:524:1,2008-09-17T12:00:00Z,29.8672,-93.9310,0.0,1.2,24.0,4.0,'11111222,11111222,11111222' 
TCOON,ioos:station:TCOON:524:1,2008-09-17T13:00:00Z,29.8672,-93.9310,0.0,3.7,4.0,4.8,'11111222,11111222,11111222' 
TCOON,ioos:station:TCOON:524:1,2008-09-17T14:00:00Z,29.8672,-93.9310,0.0,1.5,16.0,3.8,'11111222,11111222,11111222' 
TCOON,ioos:station:TCOON:524:1,2008-09-17T15:00:00Z,29.8672,-93.9310,0.0,0.9,36.0,3.0,'11111222,11111222,11111222' 
TCOON,ioos:station:TCOON:524:1,2008-09-17T16:00:00Z,29.8672,-93.9310,0.0,2.8,47.0,4.2,'11111222,11111222,11111222' 
TCOON,ioos:station:TCOON:524:1,2008-09-17T17:00:00Z,29.8672,-93.9310,0.0,2.3,56.0,4.4,'11111222,11111222,11111222' 
TCOON,ioos:station:TCOON:524:1,2008-09-17T18:00:00Z,29.8672,-93.9310,0.0,4.9,59.0,6.1,'11111222,11111222,11111222' 
TCOON,ioos:station:TCOON:524:1,2008-09-17T19:00:00Z,29.8672,-93.9310,0.0,3.8,64.0,5.6,'11111222,11111222,11111222' 
TCOON,ioos:station:TCOON:524:1,2008-09-17T20:00:00Z,29.8672,-93.9310,0.0,3.9,53.0,5.7,'11111222,11111222,11111222' 
TCOON,ioos:station:TCOON:524:1,2008-09-17T21:00:00Z,29.8672,-93.9310,0.0,4.2,54.0,6.1,'11111222,11111222,11111222' 
TCOON,ioos:station:TCOON:524:1,2008-09-17T22:00:00Z,29.8672,-93.9310,0.0,2.9,57.0,5.0,'11111222,11111222,11111222' 
TCOON,ioos:station:TCOON:524:1,2008-09-17T23:00:00Z,29.8672,-93.9310,0.0,2.1,68.0,3.4,'11111222,11111222,11111222' 
TCOON,ioos:station:TCOON:524:1,2008-09-18T00:00:00Z,29.8672,-93.9310,0.0,1.0,48.0,1.9,'11111222,11111222,11111222' 
TCOON,ioos:station:TCOON:524:1,2008-09-18T01:00:00Z,29.8672,-93.9310,0.0,0.6,37.0,1.1,'11111222,11111222,11111222' 
TCOON,ioos:station:TCOON:524:1,2008-09-18T02:00:00Z,29.8672,-93.9310,0.0,1.0,16.0,2.0,'11111222,11111222,11111222' 
TCOON,ioos:station:TCOON:524:1,2008-09-18T03:00:00Z,29.8672,-93.9310,0.0,0.6,26.0,1.2,'11111222,11111222,11111222' 
TCOON,ioos:station:TCOON:524:1,2008-09-18T04:00:00Z,29.8672,-93.9310,0.0,1.0,9.0,2.8,'11111222,11111222,11111222' 
TCOON,ioos:station:TCOON:524:1,2008-09-18T05:00:00Z,29.8672,-93.9310,0.0,0.9,27.0,1.9,'11111222,11111222,11111222' 
TCOON,ioos:station:TCOON:524:1,2008-09-18T06:00:00Z,29.8672,-93.9310,0.0,1.5,12.0,2.8,'11111222,11111222,11111222' 
TCOON,ioos:station:TCOON:524:1,2008-09-18T07:00:00Z,29.8672,-93.9310,0.0,0.8,24.0,1.8,'11111222,11111222,11111222' 
TCOON,ioos:station:TCOON:524:1,2008-09-18T08:00:00Z,29.8672,-93.9310,0.0,0.6,24.0,1.6,'11111222,11111222,11111222' 
TCOON,ioos:station:TCOON:524:1,2008-09-18T09:00:00Z,29.8672,-93.9310,0.0,0.3,23.0,1.2,'11111222,11111222,11111222' 
TCOON,ioos:station:TCOON:524:1,2008-09-18T10:00:00Z,29.8672,-93.9310,0.0,2.3,6.0,3.5,'11111222,11111222,11111222' 
TCOON,ioos:station:TCOON:524:1,2008-09-18T11:00:00Z,29.8672,-93.9310,0.0,1.1,26.0,3.0,'11111222,11111222,11111222' 
TCOON,ioos:station:TCOON:524:1,2008-09-18T12:00:00Z,29.8672,-93.9310,0.0,1.0,15.0,1.8,'11111222,11111222,11111222' 
TCOON,ioos:station:TCOON:524:1,2008-09-18T13:00:00Z,29.8672,-93.9310,0.0,1.3,11.0,2.6,'11111222,11111222,11111222' 
TCOON,ioos:station:TCOON:524:1,2008-09-18T14:00:00Z,29.8672,-93.9310,0.0,1.0,17.0,2.0,'11111222,11111222,11111222' 
TCOON,ioos:station:TCOON:524:1,2008-09-18T15:00:00Z,29.8672,-93.9310,0.0,1.1,37.0,3.4,'11111222,11111222,11111222' 
TCOON,ioos:station:TCOON:524:1,2008-09-18T16:00:00Z,29.8672,-93.9310,0.0,3.2,52.0,4.9,'11111222,11111222,11111222' 
TCOON,ioos:station:TCOON:524:1,2008-09-18T17:00:00Z,29.8672,-93.9310,0.0,2.7,70.0,3.7,'11111222,11111222,11111222' 
TCOON,ioos:station:TCOON:524:1,2008-09-18T18:00:00Z,29.8672,-93.9310,0.0,3.2,73.0,4.1,'11111222,11111222,11111222' 
TCOON,ioos:station:TCOON:524:1,2008-09-18T19:00:00Z,29.8672,-93.9310,0.0,2.2,87.0,3.1,'11111222,11111222,11111222' 
TCOON,ioos:station:TCOON:524:1,2008-09-18T20:00:00Z,29.8672,-93.9310,0.0,2.0,89.0,3.3,'11111222,11111222,11111222' 
TCOON,ioos:station:TCOON:524:1,2008-09-18T21:00:00Z,29.8672,-93.9310,0.0,2.3,109.0,3.2,'11111222,11111222,11111222' 
TCOON,ioos:station:TCOON:524:1,2008-09-18T22:00:00Z,29.8672,-93.9310,0.0,2.4,89.0,2.9,'11111222,11111222,11111222' 
TCOON,ioos:station:TCOON:524:1,2008-09-18T23:00:00Z,29.8672,-93.9310,0.0,2.4,57.0,3.5,'11111222,11111222,11111222' 
TCOON,ioos:station:TCOON:524:1,2008-09-19T00:00:00Z,29.8672,-93.9310,0.0,0.9,29.0,1.7,'11111222,11111222,11111222' 
TCOON,ioos:station:TCOON:524:1,2008-09-19T01:00:00Z,29.8672,-93.9310,0.0,1.5,7.0,2.4,'11111222,11111222,11111222' 
TCOON,ioos:station:TCOON:524:1,2008-09-19T02:00:00Z,29.8672,-93.9310,0.0,1.8,4.0,2.7,'11111222,11111222,11111222' 
TCOON,ioos:station:TCOON:524:1,2008-09-19T03:00:00Z,29.8672,-93.9310,0.0,2.0,346.0,2.7,'11111222,11111222,11111222' 
TCOON,ioos:station:TCOON:524:1,2008-09-19T04:00:00Z,29.8672,-93.9310,0.0,0.9,28.0,2.2,'11111222,11111222,11111222' 
TCOON,ioos:station:TCOON:524:1,2008-09-19T05:00:00Z,29.8672,-93.9310,0.0,1.6,10.0,2.5,'11111222,11111222,11111222' 
TCOON,ioos:station:TCOON:524:1,2008-09-19T06:00:00Z,29.8672,-93.9310,0.0,2.8,356.0,3.4,'11111222,11111222,11111222' 
TCOON,ioos:station:TCOON:524:1,2008-09-19T07:00:00Z,29.8672,-93.9310,0.0,2.2,4.0,2.9,'11111222,11111222,11111222' 
TCOON,ioos:station:TCOON:524:1,2008-09-19T08:00:00Z,29.8672,-93.9310,0.0,3.1,360.0,3.7,'11111222,11144222,11111222' 
TCOON,ioos:station:TCOON:524:1,2008-09-19T09:00:00Z,29.8672,-93.9310,0.0,2.1,5.0,3.4,'11111222,11111222,11111222' 
TCOON,ioos:station:TCOON:524:1,2008-09-19T10:00:00Z,29.8672,-93.9310,0.0,1.2,21.0,2.1,'11111222,11111222,11111222' 
TCOON,ioos:station:TCOON:524:1,2008-09-19T11:00:00Z,29.8672,-93.9310,0.0,1.8,9.0,3.2,'11111222,11111222,11111222' 
TCOON,ioos:station:TCOON:524:1,2008-09-19T12:00:00Z,29.8672,-93.9310,0.0,2.0,8.0,3.0,'11111222,11111222,11111222' 
TCOON,ioos:station:TCOON:524:1,2008-09-19T12:30:00Z,29.8672,-93.9310,0.0,2.0,8.0,2.7,'11111222,11111222,11111222' 
TCOON,ioos:station:TCOON:524:1,2008-09-19T12:36:00Z,29.8672,-93.9310,0.0,0.5,72.0,2.1,'11111222,11111222,11111222' 
TCOON,ioos:station:TCOON:524:1,2008-09-19T12:42:00Z,29.8672,-93.9310,0.0,1.0,34.0,1.7,'11111222,11111222,11111222' 
TCOON,ioos:station:TCOON:524:1,2008-09-19T12:48:00Z,29.8672,-93.9310,0.0,0.4,19.0,1.2,'11111222,11111222,11111222' 
TCOON,ioos:station:TCOON:524:1,2008-09-19T12:54:00Z,29.8672,-93.9310,0.0,1.9,7.0,2.7,'11111222,11111222,11111222' 
TCOON,ioos:station:TCOON:524:1,2008-09-19T13:00:00Z,29.8672,-93.9310,0.0,1.2,18.0,2.6,'11111222,11111222,11111222' 
TCOON,ioos:station:TCOON:524:1,2008-09-19T13:06:00Z,29.8672,-93.9310,0.0,0.8,15.0,2.2,'11111222,11111222,11111222' 
TCOON,ioos:station:TCOON:524:1,2008-09-19T13:12:00Z,29.8672,-93.9310,0.0,0.6,46.0,1.1,'11111222,11111222,11111222' 
TCOON,ioos:station:TCOON:524:1,2008-09-19T13:18:00Z,29.8672,-93.9310,0.0,0.6,29.0,1.8,'11111222,11111222,11111222' 
TCOON,ioos:station:TCOON:524:1,2008-09-19T13:24:00Z,29.8672,-93.9310,0.0,0.9,43.0,1.8,'11111222,11111222,11111222' 
TCOON,ioos:station:TCOON:524:1,2008-09-19T13:36:00Z,29.8672,-93.9310,0.0,0.3,48.0,1.2,'11111222,11111222,11111222' 
TCOON,ioos:station:TCOON:524:1,2008-09-19T13:42:00Z,29.8672,-93.9310,0.0,1.1,38.0,3.0,'11111222,11111222,11111222' 
TCOON,ioos:station:TCOON:524:1,2008-09-19T13:48:00Z,29.8672,-93.9310,0.0,1.6,61.0,2.3,'11111222,11111222,11111222' 
TCOON,ioos:station:TCOON:524:1,2008-09-19T13:54:00Z,29.8672,-93.9310,0.0,2.0,64.0,2.7,'11111222,11111222,11111222' 